SL-3 R/B (16111 NORAD) Tracking and Keplerian Element Data

This shows tracking and keplerian element data for the satellite.

Feedback or suggestion? Click here.




ElementValue
Catalog16111
NameSL-3 R/B
Epoch Orbit1571
Epoch Day78.26837584
Epoch Year2022
RAAN310.4146
Inclination97.4162
Eccentricity0.0002677
Argument of Perigee304.5634
Mean Anonmoly56.1012
Mean Motion16.31207583
Decay Rate0.02115622
L11 16111U 85090B 22078.26837584 .02115622 24822-5 43607-3 0 9999
L22 16111 97.4162 310.4146 0002677 304.5634 56.1012 16.31207583 15712



Live tracking and technical data element details for SL-3 R/B (NORAD 16111). SL-3 R/B can be tracked NOW for your location showing map with azimuth and elevation plus other details from your city location.







IsCatalogInMostPopularTable: catalog: 16111, numindb: 386
Update: records affected: 1



GetName: 16111 SL-3 R/B

Hit Count: updated at: Sat, 17 May 2025 10:08:40 GMT